Rene — UBCJ8 — position and weather

sailwx.info

Track history (hours):
 
Tides and Currents Weather Stations Pressure Air Temp Water Temp Dewpoint Dewpoint Depression Visibility Wind Speed Wind Dir Waves Ship Positions

Rene

Last reported at 2017-Sep-26 08:36 UTC. Time now 2017-Oct-19 18:44 UTC.
Position N 44°39' E 037°21'.
Warning: this ship's position is 23 days out of date.

Length 78 m; draft 3.6 m.

Type: Ship. MMSI: 273353480.

Date/timePositionNaut miles runAvg speedWind from/ knotsBaromVisibWave heightAir tempDewpointWater temp
2017-Sep-26 08:36N 44°39' E 037°21'1 4.0
2017-Sep-26 08:19N 44°38' E 037°22'2 3.9
2017-Sep-26 07:51N 44°36' E 037°23'6 4.2
2017-Sep-26 06:27N 44°32' E 037°29'2 4.8
2017-Sep-26 05:58N 44°31' E 037°32'2 4.6
2017-Sep-26 05:30N 44°31' E 037°35'2 4.7
2017-Sep-26 05:00N 44°30' E 037°38'2 4.8
2017-Sep-26 04:30N 44°29' E 037°42'2 4.8
2017-Sep-26 04:00N 44°29' E 037°45'2 4.9
2017-Sep-26 03:30N 44°28' E 037°48'3 5.3
2017-Sep-26 03:00N 44°27' E 037°52'3 5.5
2017-Sep-26 02:26N 44°26' E 037°56'2 5.3
2017-Sep-26 01:59N 44°25' E 037°59'3 5.5
2017-Sep-26 01:31N 44°24' E 038°02'26 5.8
2017-Sep-25 20:59N 44°13' E 038°35'3 5.5
2017-Sep-25 20:25N 44°11' E 038°39'2 5.8
2017-Sep-25 20:01N 44°10' E 038°42'3 5.8
2017-Sep-25 19:31N 44°09' E 038°46'3 6.1
2017-Sep-25 19:00N 44°08' E 038°50'3 6.2
2017-Sep-25 18:31N 44°07' E 038°54'3 6.2
2017-Sep-25 18:01N 44°05' E 038°58'3 5.5
2017-Sep-25 17:31N 44°05' E 039°01'2 4.0
2017-Sep-25 17:01N 44°05' E 039°04'1 1.0
2017-Sep-25 16:28N 44°06' E 039°04'0 0.0
2017-Sep-25 15:58N 44°06' E 039°04'0 0.0
2017-Sep-25 15:28N 44°06' E 039°04'0 0.0
2017-Sep-25 14:58N 44°06' E 039°04'0 0.0
2017-Sep-25 14:28N 44°06' E 039°04'0 0.0
2017-Sep-25 13:58N 44°06' E 039°04'0 0.0
2017-Sep-25 13:28N 44°06' E 039°04'0 0.0
2017-Sep-25 12:58N 44°06' E 039°04'0 0.0
2017-Sep-25 12:28N 44°06' E 039°04'0 0.0
2017-Sep-25 11:58N 44°06' E 039°04'0 0.0
2017-Sep-25 11:28N 44°06' E 039°04'0 0.0
2017-Sep-25 10:58N 44°06' E 039°04'0 0.0
2017-Sep-25 10:28N 44°06' E 039°04'0 0.0
2017-Sep-25 09:58N 44°06' E 039°04'0 0.0
2017-Sep-25 09:28N 44°06' E 039°04'0 0.0
2017-Sep-25 08:58N 44°06' E 039°04'0 0.0
2017-Sep-25 08:28N 44°06' E 039°04'0 0.0
2017-Sep-25 07:58N 44°06' E 039°04'0 0.0
2017-Sep-25 07:28N 44°06' E 039°04'0 0.0
2017-Sep-25 06:58N 44°06' E 039°04'0 0.0
2017-Sep-25 06:28N 44°06' E 039°04'0 0.0
2017-Sep-25 05:58N 44°06' E 039°04'0 0.0
2017-Sep-25 05:28N 44°06' E 039°04'0 0.0
2017-Sep-25 04:58N 44°06' E 039°04'0 0.0
2017-Sep-25 04:28N 44°06' E 039°04'0 0.0
2017-Sep-25 03:58N 44°06' E 039°04'0 0.0
2017-Sep-25 03:28N 44°06' E 039°04'0 0.0
2017-Sep-25 02:58N 44°06' E 039°04'0 0.0
2017-Sep-25 02:28N 44°06' E 039°04'0 0.0
2017-Sep-25 01:58N 44°06' E 039°04'0 0.0
2017-Sep-25 01:28N 44°06' E 039°04'0 0.0
2017-Sep-25 00:58N 44°06' E 039°04'0 0.0
2017-Sep-25 00:28N 44°06' E 039°04'0 0.0
2017-Sep-24 23:58N 44°06' E 039°04'0 0.0
2017-Sep-24 23:28N 44°06' E 039°04'0 0.0
2017-Sep-24 22:58N 44°06' E 039°04'0 0.0
2017-Sep-24 22:28N 44°06' E 039°04'0 0.0
2017-Sep-24 21:58N 44°06' E 039°04'0 0.0
2017-Sep-24 21:28N 44°06' E 039°04'0 0.0
2017-Sep-24 20:58N 44°06' E 039°04'0 0.0
2017-Sep-24 20:28N 44°06' E 039°04'0 0.0
2017-Sep-24 19:58N 44°06' E 039°04'0 0.0
2017-Sep-24 19:28N 44°06' E 039°04'0 0.0
2017-Sep-24 18:58N 44°06' E 039°04'0 0.0
2017-Sep-24 18:28N 44°06' E 039°04'0 0.0
2017-Sep-24 17:58N 44°06' E 039°04'0 0.0
2017-Sep-24 17:28N 44°06' E 039°04'0 0.0
2017-Sep-24 16:58N 44°06' E 039°04'0 0.0
2017-Sep-24 16:28N 44°06' E 039°04'0 0.0
2017-Sep-24 15:58N 44°06' E 039°04'0 0.0
2017-Sep-24 15:28N 44°06' E 039°04'0 0.0
2017-Sep-24 14:58N 44°06' E 039°04'0 0.0
2017-Sep-24 14:28N 44°06' E 039°04'0 0.0
2017-Sep-24 13:58N 44°06' E 039°04'0 0.0
2017-Sep-24 13:28N 44°06' E 039°04'0 0.0
2017-Sep-24 12:58N 44°06' E 039°04'0 0.0
2017-Sep-24 12:28N 44°06' E 039°04'0 0.0
2017-Sep-24 11:58N 44°06' E 039°04'0 0.0
2017-Sep-24 11:28N 44°06' E 039°04'0 0.0
2017-Sep-24 10:58N 44°06' E 039°04'0 0.0
2017-Sep-24 10:28N 44°06' E 039°04'0 0.0
2017-Sep-24 09:58N 44°06' E 039°04'0 0.0
2017-Sep-24 09:28N 44°06' E 039°04'0 0.0
2017-Sep-24 08:58N 44°06' E 039°04'0 0.0
2017-Sep-24 08:28N 44°06' E 039°04'0 0.0
2017-Sep-24 07:58N 44°06' E 039°04'0 0.0
2017-Sep-24 07:28N 44°06' E 039°04'0 0.0
2017-Sep-24 06:58N 44°06' E 039°04'0 0.0
2017-Sep-24 06:28N 44°06' E 039°04'0 0.0
2017-Sep-24 05:58N 44°06' E 039°04'0 0.0
2017-Sep-24 05:28N 44°06' E 039°04'0 0.0
2017-Sep-24 04:58N 44°06' E 039°04'0 0.0
2017-Sep-24 04:28N 44°06' E 039°04'0 0.0
2017-Sep-24 03:58N 44°06' E 039°04'0 0.0
2017-Sep-24 03:28N 44°06' E 039°04'0 0.0
2017-Sep-24 02:58N 44°06' E 039°04'0 0.0
2017-Sep-24 02:28N 44°06' E 039°04'0 0.0
2017-Sep-24 01:58N 44°06' E 039°04'0 0.0
2017-Sep-24 01:28N 44°06' E 039°04'0 0.0
2017-Sep-24 00:58N 44°06' E 039°04'0 0.0
2017-Sep-24 00:28N 44°06' E 039°04'0 0.0
2017-Sep-23 23:58N 44°06' E 039°04'0 0.0
2017-Sep-23 23:28N 44°06' E 039°04'0 0.0
2017-Sep-23 22:58N 44°06' E 039°04'0 0.0
2017-Sep-23 22:28N 44°06' E 039°04'0 0.0
2017-Sep-23 21:58N 44°06' E 039°04'0 0.0
2017-Sep-23 21:28N 44°06' E 039°04'0 0.0
2017-Sep-23 20:58N 44°06' E 039°04'0 0.0
2017-Sep-23 20:28N 44°06' E 039°04'0 0.0
2017-Sep-23 19:58N 44°06' E 039°04'0 0.0
2017-Sep-22 01:58N 44°06' E 039°04'0 0.0
2017-Sep-22 01:28N 44°06' E 039°04'0 0.0
2017-Sep-22 00:58N 44°06' E 039°04'0 0.0
2017-Sep-22 00:28N 44°06' E 039°04'0 0.0
2017-Sep-21 23:58N 44°06' E 039°04'0 0.0
2017-Sep-21 23:28N 44°06' E 039°04'0 0.0
2017-Sep-21 22:58N 44°06' E 039°04'0 0.0
2017-Sep-21 22:28N 44°06' E 039°04'0 0.0
2017-Sep-21 21:58N 44°06' E 039°04'0 0.0
2017-Sep-21 21:28N 44°06' E 039°04'0 0.0
2017-Sep-21 20:58N 44°06' E 039°04'0 0.0
2017-Sep-21 20:28N 44°06' E 039°04'0 0.0
2017-Sep-21 19:58N 44°06' E 039°04'0 0.0
2017-Sep-21 19:28N 44°06' E 039°04'0 0.0
2017-Sep-21 18:58N 44°06' E 039°04'0 0.0
2017-Sep-21 18:28N 44°06' E 039°04'0 0.0
2017-Sep-21 17:58N 44°06' E 039°04'0 0.0
2017-Sep-21 17:28N 44°06' E 039°04'0 0.0
2017-Sep-21 16:55N 44°06' E 039°04'0 0.0
2017-Sep-21 16:28N 44°06' E 039°04'0 0.0
2017-Sep-21 15:58N 44°06' E 039°04'0 0.0
2017-Sep-21 15:28N 44°06' E 039°04'0 0.0
2017-Sep-21 14:58N 44°06' E 039°04'0 0.0
2017-Sep-21 14:28N 44°06' E 039°04'0 0.0
2017-Sep-21 13:58N 44°06' E 039°04'0 0.0
2017-Sep-21 13:28N 44°06' E 039°04'0 0.0
2017-Sep-21 12:58N 44°06' E 039°04'0 0.0
2017-Sep-21 12:28N 44°06' E 039°04'0 0.0
2017-Sep-21 11:58N 44°06' E 039°04'0 0.0
2017-Sep-21 11:28N 44°06' E 039°04'0 0.0
2017-Sep-21 10:58N 44°06' E 039°04'0 0.0
2017-Sep-21 10:28N 44°06' E 039°04'0 0.0
2017-Sep-21 09:58N 44°06' E 039°04'0 0.0
2017-Sep-21 09:28N 44°06' E 039°04'0 0.0
2017-Sep-21 08:58N 44°06' E 039°04'0 0.0
2017-Sep-21 08:28N 44°06' E 039°04'0 0.0
2017-Sep-21 07:58N 44°06' E 039°04'0 0.0
2017-Sep-21 07:28N 44°06' E 039°04'0 0.0
2017-Sep-21 06:58N 44°06' E 039°04'0 0.0
2017-Sep-21 06:28N 44°06' E 039°04'0 0.0
2017-Sep-21 05:58N 44°06' E 039°04'0 0.0
2017-Sep-21 05:28N 44°06' E 039°04'0 0.0
2017-Sep-21 04:58N 44°06' E 039°04'0 0.0
2017-Sep-21 04:28N 44°06' E 039°04'0 0.0
2017-Sep-21 03:58N 44°06' E 039°04'0 0.0
2017-Sep-21 03:28N 44°06' E 039°04'0 0.0
2017-Sep-21 02:58N 44°06' E 039°04'0 0.0
2017-Sep-21 02:28N 44°06' E 039°04'0 0.0
2017-Sep-21 01:58N 44°06' E 039°04'0 0.0
2017-Sep-21 01:28N 44°06' E 039°04'0 0.0
2017-Sep-21 00:58N 44°06' E 039°04'0 0.0
2017-Sep-21 00:28N 44°06' E 039°04'0 0.0
2017-Sep-20 23:58N 44°06' E 039°04'0 0.0
2017-Sep-20 23:28N 44°06' E 039°04'0 0.0
2017-Sep-20 22:58N 44°06' E 039°04'0 0.0
2017-Sep-20 22:28N 44°06' E 039°04'0 0.0
2017-Sep-20 21:58N 44°06' E 039°04'0 0.0
2017-Sep-20 21:28N 44°06' E 039°04'0 0.0
2017-Sep-20 20:58N 44°06' E 039°04'0 0.0
2017-Sep-20 20:28N 44°06' E 039°04'0 0.0
2017-Sep-20 19:58N 44°06' E 039°04'0 0.0
2017-Sep-20 19:28N 44°06' E 039°04'0 0.0
2017-Sep-20 18:58N 44°06' E 039°04'0 0.0
2017-Sep-20 18:28N 44°06' E 039°04'0 0.0
2017-Sep-20 17:58N 44°06' E 039°04'0 0.0
2017-Sep-20 17:28N 44°06' E 039°04'0 0.0
2017-Sep-20 16:58N 44°06' E 039°04'0 0.0
2017-Sep-20 16:28N 44°06' E 039°04'0 0.0
2017-Sep-20 15:58N 44°06' E 039°04'0 0.0
2017-Sep-20 15:28N 44°06' E 039°04'0 0.0
2017-Sep-20 14:58N 44°06' E 039°04'0 0.0
2017-Sep-20 13:58N 44°06' E 039°04'0 0.0
2017-Sep-20 13:28N 44°06' E 039°04'0 0.0
2017-Sep-20 12:58N 44°06' E 039°04'0 0.0
2017-Sep-20 12:28N 44°06' E 039°04'0 0.0
2017-Sep-20 11:58N 44°06' E 039°04'0 0.0
2017-Sep-20 11:28N 44°06' E 039°04'0 0.0
2017-Sep-20 10:58N 44°06' E 039°04'0 0.0
2017-Sep-20 10:28N 44°06' E 039°04'0 0.0
2017-Sep-20 09:58N 44°06' E 039°04'0 0.0
2017-Sep-20 09:28N 44°06' E 039°04'0 0.0
2017-Sep-20 08:58N 44°06' E 039°04'0 0.0
2017-Sep-20 08:28N 44°06' E 039°04'0 0.0
2017-Sep-20 07:58N 44°06' E 039°04'0 0.0
2017-Sep-20 07:30N 44°06' E 039°04'0 0.0
2017-Sep-20 06:58N 44°06' E 039°04'0 0.0
2017-Sep-20 06:28N 44°06' E 039°04'0 0.0
2017-Sep-20 05:58N 44°06' E 039°04'0 0.0
2017-Sep-20 05:28N 44°06' E 039°04'0 0.0
2017-Sep-20 04:58N 44°06' E 039°04'0 0.0
2017-Sep-20 04:28N 44°06' E 039°04'0 0.0
2017-Sep-20 03:58N 44°06' E 039°04'0 0.0
2017-Sep-20 03:25N 44°06' E 039°04'0 0.0
2017-Sep-20 02:58N 44°06' E 039°04'0 0.0
2017-Sep-20 02:28N 44°06' E 039°04'0 0.0
2017-Sep-20 01:58N 44°06' E 039°04'0 0.0
2017-Sep-20 01:28N 44°06' E 039°04'0 0.0
2017-Sep-20 00:58N 44°06' E 039°04'0 0.0
2017-Sep-20 00:28N 44°06' E 039°04'0 0.0
2017-Sep-19 23:58N 44°06' E 039°04'0 0.0
2017-Sep-19 23:28N 44°06' E 039°04'0 0.0
2017-Sep-19 22:58N 44°06' E 039°04'0 0.0
2017-Sep-19 22:28N 44°06' E 039°04'0 0.0
2017-Sep-19 21:58N 44°06' E 039°04'0 0.0
2017-Sep-19 21:28N 44°06' E 039°04'0 0.0
2017-Sep-19 20:58N 44°06' E 039°04'0 0.0
2017-Sep-19 20:28N 44°06' E 039°04'0 0.0
2017-Sep-19 19:58N 44°06' E 039°04'0 0.0
2017-Sep-19 19:28N 44°06' E 039°04'0 0.0
2017-Sep-19 18:58N 44°06' E 039°04'0 0.0
2017-Sep-19 18:28N 44°06' E 039°04'0 0.0
2017-Sep-19 17:58N 44°06' E 039°04'0 0.0
2017-Sep-19 17:28N 44°06' E 039°04'0 0.0
2017-Sep-19 16:58N 44°06' E 039°04'0 0.0
2017-Sep-19 16:28N 44°06' E 039°04'0 0.0
2017-Sep-19 15:58N 44°06' E 039°04'0 0.0
2017-Sep-19 15:28N 44°06' E 039°04'0 0.0
2017-Sep-19 14:58N 44°06' E 039°04'0 0.0
2017-Sep-19 14:28N 44°06' E 039°04'0 0.0
2017-Sep-19 13:58N 44°06' E 039°04'0 0.0
2017-Sep-19 13:28N 44°06' E 039°04'0 0.0
2017-Sep-19 12:58N 44°06' E 039°04'0 0.0
2017-Sep-19 12:28N 44°06' E 039°04'0 0.0
2017-Sep-19 11:58N 44°06' E 039°04'0 0.0
2017-Sep-19 11:28N 44°06' E 039°04'0 0.0
2017-Sep-19 10:58N 44°06' E 039°04'0 0.0
2017-Sep-19 10:28N 44°06' E 039°04'0 0.0
2017-Sep-19 09:58N 44°06' E 039°04'0 0.0
2017-Sep-19 09:28N 44°06' E 039°04'0 0.0
2017-Sep-19 08:58N 44°06' E 039°04'0 0.0
2017-Sep-19 08:28N 44°06' E 039°04'0 0.0
2017-Sep-19 07:58N 44°06' E 039°04'0 0.0
2017-Sep-19 07:28N 44°06' E 039°04'0 0.0
2017-Sep-19 06:58N 44°06' E 039°04'0 0.0
2017-Sep-19 06:28N 44°06' E 039°04'0 0.0
2017-Sep-19 05:58N 44°06' E 039°04'0 0.0
2017-Sep-19 05:28N 44°06' E 039°04'0 0.0
2017-Sep-19 04:58N 44°06' E 039°04'0 0.0
2017-Sep-19 04:29N 44°06' E 039°04'0 0.0
2017-Sep-19 03:58N 44°06' E 039°04'0 0.0
2017-Sep-19 03:28N 44°06' E 039°04'0 0.0
2017-Sep-19 02:58N 44°06' E 039°04'0 0.0
2017-Sep-19 02:28N 44°06' E 039°04'0 0.0
2017-Sep-19 01:58N 44°06' E 039°04'0 0.0
2017-Sep-19 01:28N 44°06' E 039°04'0 0.0
2017-Sep-19 00:58N 44°06' E 039°04'0 0.0
2017-Sep-19 00:28N 44°06' E 039°04'0 0.0
2017-Sep-18 23:58N 44°06' E 039°04'0 0.0
2017-Sep-18 23:28N 44°06' E 039°04'0 0.0
2017-Sep-18 22:55N 44°06' E 039°04'0 0.0
2017-Sep-18 22:28N 44°06' E 039°04'0 0.0
2017-Sep-18 21:58N 44°06' E 039°04'0 0.0
2017-Sep-18 21:28N 44°06' E 039°04'0 0.0
2017-Sep-18 20:58N 44°06' E 039°04'0 0.0
2017-Sep-18 20:28N 44°06' E 039°04'0 0.0
2017-Sep-18 19:58N 44°06' E 039°04'0 0.0
2017-Sep-18 19:28N 44°06' E 039°04'0 0.0
2017-Sep-18 18:58N 44°06' E 039°04'0 0.0
2017-Sep-18 18:28N 44°06' E 039°04'0 0.0
2017-Sep-18 17:58N 44°06' E 039°04'0 0.0
2017-Sep-18 17:28N 44°06' E 039°04'0 0.0
2017-Sep-18 16:58N 44°06' E 039°04'0 0.0
2017-Sep-18 16:28N 44°06' E 039°04'0 0.0
2017-Sep-18 15:58N 44°06' E 039°04'0 0.0
2017-Sep-18 15:28N 44°06' E 039°04'0 0.0
2017-Sep-18 14:58N 44°06' E 039°04'0 0.0
2017-Sep-18 14:28N 44°06' E 039°04'0 0.0
2017-Sep-18 13:58N 44°06' E 039°04'0 0.0
2017-Sep-18 13:28N 44°06' E 039°04'0 0.0
2017-Sep-18 12:55N 44°06' E 039°04'0 0.0
2017-Sep-18 12:28N 44°06' E 039°04'0 0.0
2017-Sep-18 11:58N 44°06' E 039°04'0 0.0
2017-Sep-18 11:28N 44°06' E 039°04'0 0.0
2017-Sep-18 10:58N 44°06' E 039°04'0 0.0
2017-Sep-18 10:28N 44°06' E 039°04'0 0.0
2017-Sep-18 09:58N 44°06' E 039°04'0 0.0
2017-Sep-18 09:28N 44°06' E 039°04'0 0.0
2017-Sep-18 08:58N 44°06' E 039°04'0 0.0
2017-Sep-18 08:28N 44°06' E 039°04'0 0.0
2017-Sep-18 07:58N 44°06' E 039°04'0 0.0
2017-Sep-18 07:28N 44°06' E 039°04'0 0.0
2017-Sep-18 06:58N 44°06' E 039°04'0 0.0
2017-Sep-18 06:28N 44°06' E 039°04'0 0.0
2017-Sep-18 05:58N 44°06' E 039°04'0 0.0
2017-Sep-18 05:28N 44°06' E 039°04'0 0.0
2017-Sep-18 04:58N 44°06' E 039°04'0 0.0
2017-Sep-18 04:28N 44°06' E 039°04'0 0.0
2017-Sep-18 03:58N 44°06' E 039°04'0 0.0
2017-Sep-18 03:28N 44°06' E 039°04'0 0.0
2017-Sep-18 02:58N 44°06' E 039°04'0 0.0
2017-Sep-18 02:28N 44°06' E 039°04'0 0.0
2017-Sep-18 01:58N 44°06' E 039°04'0 0.0
2017-Sep-18 01:28N 44°06' E 039°04'0 0.0
2017-Sep-18 00:58N 44°06' E 039°04'0 0.0
2017-Sep-18 00:28N 44°06' E 039°04'0 0.0
2017-Sep-17 23:58N 44°06' E 039°04'0 0.0
2017-Sep-17 23:28N 44°06' E 039°04'0 0.0
2017-Sep-17 22:58N 44°06' E 039°04'0 0.0
2017-Sep-17 22:28N 44°06' E 039°04'0 0.0
2017-Sep-17 21:58N 44°06' E 039°04'0 0.0
2017-Sep-17 21:28N 44°06' E 039°04'0 0.0
2017-Sep-17 20:58N 44°06' E 039°04'0 0.0
2017-Sep-17 20:28N 44°06' E 039°04'0 0.0
2017-Sep-17 19:58N 44°06' E 039°04'0 0.0
2017-Sep-17 19:28N 44°06' E 039°04'0 0.0
2017-Sep-17 18:58N 44°06' E 039°04'0 0.0
2017-Sep-17 18:28N 44°06' E 039°04'0 0.0
2017-Sep-17 17:58N 44°06' E 039°04'0 0.0
2017-Sep-17 17:28N 44°06' E 039°04'0 0.0
2017-Sep-17 16:58N 44°06' E 039°04'0 0.0
2017-Sep-17 16:28N 44°06' E 039°04'0 0.0
2017-Sep-17 15:58N 44°06' E 039°04'0 0.0
2017-Sep-17 15:28N 44°06' E 039°04'0 0.0
2017-Sep-17 14:58N 44°06' E 039°04'0 0.0
2017-Sep-17 14:28N 44°06' E 039°04'0 0.0
2017-Sep-17 13:58N 44°06' E 039°04'0 0.0
2017-Sep-17 13:28N 44°06' E 039°04'0 0.0
2017-Sep-17 12:58N 44°06' E 039°04'0 0.0
2017-Sep-17 12:28N 44°06' E 039°04'0 0.0
2017-Sep-17 11:58N 44°06' E 039°04'0 0.0
2017-Sep-17 11:28N 44°06' E 039°04'0 0.0
2017-Sep-17 10:58N 44°06' E 039°04'0 0.0
2017-Sep-17 10:28N 44°06' E 039°04'0 0.0
2017-Sep-17 09:58N 44°06' E 039°04'0 0.0
2017-Sep-17 09:28N 44°06' E 039°04'0 0.0
2017-Sep-17 08:58N 44°06' E 039°04'0 0.0
2017-Sep-17 08:28N 44°06' E 039°04'0 0.0
2017-Sep-17 07:58N 44°06' E 039°04'0 0.0
2017-Sep-17 07:28N 44°06' E 039°04'0 0.0
2017-Sep-17 06:58N 44°06' E 039°04'0 0.0
2017-Sep-17 06:28N 44°06' E 039°04'0 0.0
2017-Sep-17 05:58N 44°06' E 039°04'0 0.0
2017-Sep-17 05:28N 44°06' E 039°04'0 0.0
2017-Sep-17 04:58N 44°06' E 039°04'0 0.0
2017-Sep-17 04:28N 44°06' E 039°04'0 0.0
2017-Sep-17 03:58N 44°06' E 039°04'0 0.0
2017-Sep-17 03:28N 44°06' E 039°04'0 0.0
2017-Sep-17 02:58N 44°06' E 039°04'0 0.0
2017-Sep-17 02:28N 44°06' E 039°04'0 0.0
2017-Sep-17 01:58N 44°06' E 039°04'0 0.0
2017-Sep-17 01:28N 44°06' E 039°04'0 0.0
2017-Sep-17 00:58N 44°06' E 039°04'0 0.0
2017-Sep-17 00:28N 44°06' E 039°04'0 0.0
2017-Sep-16 23:58N 44°06' E 039°04'0 0.0
2017-Sep-16 23:28N 44°06' E 039°04'0 0.0
2017-Sep-16 22:58N 44°06' E 039°04'0 0.0
2017-Sep-16 22:28N 44°06' E 039°04'0 0.0
2017-Sep-16 21:58N 44°06' E 039°04'0 0.0
2017-Sep-16 21:28N 44°06' E 039°04'0 0.0
2017-Sep-16 20:58N 44°06' E 039°04'0 0.0
2017-Sep-16 20:28N 44°06' E 039°04'0 0.0
2017-Sep-16 19:58N 44°06' E 039°04'0 0.0
2017-Sep-16 19:28N 44°06' E 039°04'0 0.0
2017-Sep-16 18:58N 44°06' E 039°04'0 0.0
2017-Sep-16 18:28N 44°06' E 039°04'0 0.0
2017-Sep-16 17:58N 44°06' E 039°04'0 0.0
2017-Sep-16 17:28N 44°06' E 039°04'0 0.0
2017-Sep-16 16:58N 44°06' E 039°04'0 0.0
2017-Sep-16 16:28N 44°06' E 039°04'0 0.0
2017-Sep-16 15:58N 44°06' E 039°04'0 0.0
2017-Sep-16 15:28N 44°06' E 039°04'0 0.0
2017-Sep-16 14:58N 44°06' E 039°04'0 0.0
2017-Sep-16 14:28N 44°06' E 039°04'0 0.0
2017-Sep-16 13:58N 44°06' E 039°04'0 0.0
2017-Sep-16 13:28N 44°06' E 039°04'0 0.0
2017-Sep-16 12:58N 44°06' E 039°04'0 0.0
2017-Sep-16 12:28N 44°06' E 039°04'0 0.0
2017-Sep-16 11:58N 44°06' E 039°04'0 0.0
2017-Sep-16 11:25N 44°06' E 039°04'0 0.0
2017-Sep-16 10:58N 44°06' E 039°04'0 0.0
2017-Sep-16 10:28N 44°06' E 039°04'0 0.0
2017-Sep-16 09:58N 44°06' E 039°04'0 0.0
2017-Sep-16 09:28N 44°06' E 039°04'0 0.0
2017-Sep-16 08:58N 44°06' E 039°04'  
Track history (hours):
 
Tides and Currents Weather Stations Pressure Air Temp Water Temp Dewpoint Dewpoint Depression Visibility Wind Speed Wind Dir Waves Ship Positions

Rene

Last reported at 2017-Sep-26 08:36 UTC. Time now 2017-Oct-19 18:44 UTC.
Position N 44°39' E 037°21'.
Warning: this ship's position is 23 days out of date.

Length 78 m; draft 3.6 m.

Type: Ship. MMSI: 273353480.

Date/timePositionNaut miles runAvg speedWind from/ knotsBaromVisibWave heightAir tempDewpointWater temp
2017-Sep-26 08:36N 44°39' E 037°21'1 4.0
2017-Sep-26 08:19N 44°38' E 037°22'2 3.9
2017-Sep-26 07:51N 44°36' E 037°23'6 4.2
2017-Sep-26 06:27N 44°32' E 037°29'2 4.8
2017-Sep-26 05:58N 44°31' E 037°32'2 4.6
2017-Sep-26 05:30N 44°31' E 037°35'2 4.7
2017-Sep-26 05:00N 44°30' E 037°38'2 4.8
2017-Sep-26 04:30N 44°29' E 037°42'2 4.8
2017-Sep-26 04:00N 44°29' E 037°45'2 4.9
2017-Sep-26 03:30N 44°28' E 037°48'3 5.3
2017-Sep-26 03:00N 44°27' E 037°52'3 5.5
2017-Sep-26 02:26N 44°26' E 037°56'2 5.3
2017-Sep-26 01:59N 44°25' E 037°59'3 5.5
2017-Sep-26 01:31N 44°24' E 038°02'26 5.8
2017-Sep-25 20:59N 44°13' E 038°35'3 5.5
2017-Sep-25 20:25N 44°11' E 038°39'2 5.8
2017-Sep-25 20:01N 44°10' E 038°42'3 5.8
2017-Sep-25 19:31N 44°09' E 038°46'3 6.1
2017-Sep-25 19:00N 44°08' E 038°50'3 6.2
2017-Sep-25 18:31N 44°07' E 038°54'3 6.2
2017-Sep-25 18:01N 44°05' E 038°58'3 5.5
2017-Sep-25 17:31N 44°05' E 039°01'2 4.0
2017-Sep-25 17:01N 44°05' E 039°04'1 1.0
2017-Sep-25 16:28N 44°06' E 039°04'0 0.0
2017-Sep-25 15:58N 44°06' E 039°04'0 0.0
2017-Sep-25 15:28N 44°06' E 039°04'0 0.0
2017-Sep-25 14:58N 44°06' E 039°04'0 0.0
2017-Sep-25 14:28N 44°06' E 039°04'0 0.0
2017-Sep-25 13:58N 44°06' E 039°04'0 0.0
2017-Sep-25 13:28N 44°06' E 039°04'0 0.0
2017-Sep-25 12:58N 44°06' E 039°04'0 0.0
2017-Sep-25 12:28N 44°06' E 039°04'0 0.0
2017-Sep-25 11:58N 44°06' E 039°04'0 0.0
2017-Sep-25 11:28N 44°06' E 039°04'0 0.0
2017-Sep-25 10:58N 44°06' E 039°04'0 0.0
2017-Sep-25 10:28N 44°06' E 039°04'0 0.0
2017-Sep-25 09:58N 44°06' E 039°04'0 0.0
2017-Sep-25 09:28N 44°06' E 039°04'0 0.0
2017-Sep-25 08:58N 44°06' E 039°04'0 0.0
2017-Sep-25 08:28N 44°06' E 039°04'0 0.0
2017-Sep-25 07:58N 44°06' E 039°04'0 0.0
2017-Sep-25 07:28N 44°06' E 039°04'0 0.0
2017-Sep-25 06:58N 44°06' E 039°04'0 0.0
2017-Sep-25 06:28N 44°06' E 039°04'0 0.0
2017-Sep-25 05:58N 44°06' E 039°04'0 0.0
2017-Sep-25 05:28N 44°06' E 039°04'0 0.0
2017-Sep-25 04:58N 44°06' E 039°04'0 0.0
2017-Sep-25 04:28N 44°06' E 039°04'0 0.0
2017-Sep-25 03:58N 44°06' E 039°04'0 0.0
2017-Sep-25 03:28N 44°06' E 039°04'0 0.0
2017-Sep-25 02:58N 44°06' E 039°04'0 0.0
2017-Sep-25 02:28N 44°06' E 039°04'0 0.0
2017-Sep-25 01:58N 44°06' E 039°04'0 0.0
2017-Sep-25 01:28N 44°06' E 039°04'0 0.0
2017-Sep-25 00:58N 44°06' E 039°04'0 0.0
2017-Sep-25 00:28N 44°06' E 039°04'0 0.0
2017-Sep-24 23:58N 44°06' E 039°04'0 0.0
2017-Sep-24 23:28N 44°06' E 039°04'0 0.0
2017-Sep-24 22:58N 44°06' E 039°04'0 0.0
2017-Sep-24 22:28N 44°06' E 039°04'0 0.0
2017-Sep-24 21:58N 44°06' E 039°04'0 0.0
2017-Sep-24 21:28N 44°06' E 039°04'0 0.0
2017-Sep-24 20:58N 44°06' E 039°04'0 0.0
2017-Sep-24 20:28N 44°06' E 039°04'0 0.0
2017-Sep-24 19:58N 44°06' E 039°04'0 0.0
2017-Sep-24 19:28N 44°06' E 039°04'0 0.0
2017-Sep-24 18:58N 44°06' E 039°04'0 0.0
2017-Sep-24 18:28N 44°06' E 039°04'0 0.0
2017-Sep-24 17:58N 44°06' E 039°04'0 0.0
2017-Sep-24 17:28N 44°06' E 039°04'0 0.0
2017-Sep-24 16:58N 44°06' E 039°04'0 0.0
2017-Sep-24 16:28N 44°06' E 039°04'0 0.0
2017-Sep-24 15:58N 44°06' E 039°04'0 0.0
2017-Sep-24 15:28N 44°06' E 039°04'0 0.0
2017-Sep-24 14:58N 44°06' E 039°04'0 0.0
2017-Sep-24 14:28N 44°06' E 039°04'0 0.0
2017-Sep-24 13:58N 44°06' E 039°04'0 0.0
2017-Sep-24 13:28N 44°06' E 039°04'0 0.0
2017-Sep-24 12:58N 44°06' E 039°04'0 0.0
2017-Sep-24 12:28N 44°06' E 039°04'0 0.0
2017-Sep-24 11:58N 44°06' E 039°04'0 0.0
2017-Sep-24 11:28N 44°06' E 039°04'0 0.0
2017-Sep-24 10:58N 44°06' E 039°04'0 0.0
2017-Sep-24 10:28N 44°06' E 039°04'0 0.0
2017-Sep-24 09:58N 44°06' E 039°04'0 0.0
2017-Sep-24 09:28N 44°06' E 039°04'0 0.0
2017-Sep-24 08:58N 44°06' E 039°04'0 0.0
2017-Sep-24 08:28N 44°06' E 039°04'0 0.0
2017-Sep-24 07:58N 44°06' E 039°04'0 0.0
2017-Sep-24 07:28N 44°06' E 039°04'0 0.0
2017-Sep-24 06:58N 44°06' E 039°04'0 0.0
2017-Sep-24 06:28N 44°06' E 039°04'0 0.0
2017-Sep-24 05:58N 44°06' E 039°04'0 0.0
2017-Sep-24 05:28N 44°06' E 039°04'0 0.0
2017-Sep-24 04:58N 44°06' E 039°04'0 0.0
2017-Sep-24 04:28N 44°06' E 039°04'0 0.0
2017-Sep-24 03:58N 44°06' E 039°04'0 0.0
2017-Sep-24 03:28N 44°06' E 039°04'0 0.0
2017-Sep-24 02:58N 44°06' E 039°04'0 0.0
2017-Sep-24 02:28N 44°06' E 039°04'0 0.0
2017-Sep-24 01:58N 44°06' E 039°04'0 0.0
2017-Sep-24 01:28N 44°06' E 039°04'0 0.0
2017-Sep-24 00:58N 44°06' E 039°04'0 0.0
2017-Sep-24 00:28N 44°06' E 039°04'0 0.0
2017-Sep-23 23:58N 44°06' E 039°04'0 0.0
2017-Sep-23 23:28N 44°06' E 039°04'0 0.0
2017-Sep-23 22:58N 44°06' E 039°04'0 0.0
2017-Sep-23 22:28N 44°06' E 039°04'0 0.0
2017-Sep-23 21:58N 44°06' E 039°04'0 0.0
2017-Sep-23 21:28N 44°06' E 039°04'0 0.0
2017-Sep-23 20:58N 44°06' E 039°04'0 0.0
2017-Sep-23 20:28N 44°06' E 039°04'0 0.0
2017-Sep-23 19:58N 44°06' E 039°04'0 0.0
2017-Sep-22 01:58N 44°06' E 039°04'0 0.0
2017-Sep-22 01:28N 44°06' E 039°04'0 0.0
2017-Sep-22 00:58N 44°06' E 039°04'0 0.0
2017-Sep-22 00:28N 44°06' E 039°04'0 0.0
2017-Sep-21 23:58N 44°06' E 039°04'0 0.0
2017-Sep-21 23:28N 44°06' E 039°04'0 0.0
2017-Sep-21 22:58N 44°06' E 039°04'0 0.0
2017-Sep-21 22:28N 44°06' E 039°04'0 0.0
2017-Sep-21 21:58N 44°06' E 039°04'0 0.0
2017-Sep-21 21:28N 44°06' E 039°04'0 0.0
2017-Sep-21 20:58N 44°06' E 039°04'0 0.0
2017-Sep-21 20:28N 44°06' E 039°04'0 0.0
2017-Sep-21 19:58N 44°06' E 039°04'0 0.0
2017-Sep-21 19:28N 44°06' E 039°04'0 0.0
2017-Sep-21 18:58N 44°06' E 039°04'0 0.0
2017-Sep-21 18:28N 44°06' E 039°04'0 0.0
2017-Sep-21 17:58N 44°06' E 039°04'0 0.0
2017-Sep-21 17:28N 44°06' E 039°04'0 0.0
2017-Sep-21 16:55N 44°06' E 039°04'0 0.0
2017-Sep-21 16:28N 44°06' E 039°04'0 0.0
2017-Sep-21 15:58N 44°06' E 039°04'0 0.0
2017-Sep-21 15:28N 44°06' E 039°04'0 0.0
2017-Sep-21 14:58N 44°06' E 039°04'0 0.0
2017-Sep-21 14:28N 44°06' E 039°04'0 0.0
2017-Sep-21 13:58N 44°06' E 039°04'0 0.0
2017-Sep-21 13:28N 44°06' E 039°04'0 0.0
2017-Sep-21 12:58N 44°06' E 039°04'0 0.0
2017-Sep-21 12:28N 44°06' E 039°04'0 0.0
2017-Sep-21 11:58N 44°06' E 039°04'0 0.0
2017-Sep-21 11:28N 44°06' E 039°04'0 0.0
2017-Sep-21 10:58N 44°06' E 039°04'0 0.0
2017-Sep-21 10:28N 44°06' E 039°04'0 0.0
2017-Sep-21 09:58N 44°06' E 039°04'0 0.0
2017-Sep-21 09:28N 44°06' E 039°04'0 0.0
2017-Sep-21 08:58N 44°06' E 039°04'0 0.0
2017-Sep-21 08:28N 44°06' E 039°04'0 0.0
2017-Sep-21 07:58N 44°06' E 039°04'0 0.0
2017-Sep-21 07:28N 44°06' E 039°04'0 0.0
2017-Sep-21 06:58N 44°06' E 039°04'0 0.0
2017-Sep-21 06:28N 44°06' E 039°04'0 0.0
2017-Sep-21 05:58N 44°06' E 039°04'0 0.0
2017-Sep-21 05:28N 44°06' E 039°04'0 0.0
2017-Sep-21 04:58N 44°06' E 039°04'0 0.0
2017-Sep-21 04:28N 44°06' E 039°04'0 0.0
2017-Sep-21 03:58N 44°06' E 039°04'0 0.0
2017-Sep-21 03:28N 44°06' E 039°04'0 0.0
2017-Sep-21 02:58N 44°06' E 039°04'0 0.0
2017-Sep-21 02:28N 44°06' E 039°04'0 0.0
2017-Sep-21 01:58N 44°06' E 039°04'0 0.0
2017-Sep-21 01:28N 44°06' E 039°04'0 0.0
2017-Sep-21 00:58N 44°06' E 039°04'0 0.0
2017-Sep-21 00:28N 44°06' E 039°04'0 0.0
2017-Sep-20 23:58N 44°06' E 039°04'0 0.0
2017-Sep-20 23:28N 44°06' E 039°04'0 0.0
2017-Sep-20 22:58N 44°06' E 039°04'0 0.0
2017-Sep-20 22:28N 44°06' E 039°04'0 0.0
2017-Sep-20 21:58N 44°06' E 039°04'0 0.0
2017-Sep-20 21:28N 44°06' E 039°04'0 0.0
2017-Sep-20 20:58N 44°06' E 039°04'0 0.0
2017-Sep-20 20:28N 44°06' E 039°04'0 0.0
2017-Sep-20 19:58N 44°06' E 039°04'0 0.0
2017-Sep-20 19:28N 44°06' E 039°04'0 0.0
2017-Sep-20 18:58N 44°06' E 039°04'0 0.0
2017-Sep-20 18:28N 44°06' E 039°04'0 0.0
2017-Sep-20 17:58N 44°06' E 039°04'0 0.0
2017-Sep-20 17:28N 44°06' E 039°04'0 0.0
2017-Sep-20 16:58N 44°06' E 039°04'0 0.0
2017-Sep-20 16:28N 44°06' E 039°04'0 0.0
2017-Sep-20 15:58N 44°06' E 039°04'0 0.0
2017-Sep-20 15:28N 44°06' E 039°04'0 0.0
2017-Sep-20 14:58N 44°06' E 039°04'0 0.0
2017-Sep-20 13:58N 44°06' E 039°04'0 0.0
2017-Sep-20 13:28N 44°06' E 039°04'0 0.0
2017-Sep-20 12:58N 44°06' E 039°04'0 0.0
2017-Sep-20 12:28N 44°06' E 039°04'0 0.0
2017-Sep-20 11:58N 44°06' E 039°04'0 0.0
2017-Sep-20 11:28N 44°06' E 039°04'0 0.0
2017-Sep-20 10:58N 44°06' E 039°04'0 0.0
2017-Sep-20 10:28N 44°06' E 039°04'0 0.0
2017-Sep-20 09:58N 44°06' E 039°04'0 0.0
2017-Sep-20 09:28N 44°06' E 039°04'0 0.0
2017-Sep-20 08:58N 44°06' E 039°04'0 0.0
2017-Sep-20 08:28N 44°06' E 039°04'0 0.0
2017-Sep-20 07:58N 44°06' E 039°04'0 0.0
2017-Sep-20 07:30N 44°06' E 039°04'0 0.0
2017-Sep-20 06:58N 44°06' E 039°04'0 0.0
2017-Sep-20 06:28N 44°06' E 039°04'0 0.0
2017-Sep-20 05:58N 44°06' E 039°04'0 0.0
2017-Sep-20 05:28N 44°06' E 039°04'0 0.0
2017-Sep-20 04:58N 44°06' E 039°04'0 0.0
2017-Sep-20 04:28N 44°06' E 039°04'0 0.0
2017-Sep-20 03:58N 44°06' E 039°04'0 0.0
2017-Sep-20 03:25N 44°06' E 039°04'0 0.0
2017-Sep-20 02:58N 44°06' E 039°04'0 0.0
2017-Sep-20 02:28N 44°06' E 039°04'0 0.0
2017-Sep-20 01:58N 44°06' E 039°04'0 0.0
2017-Sep-20 01:28N 44°06' E 039°04'0 0.0
2017-Sep-20 00:58N 44°06' E 039°04'0 0.0
2017-Sep-20 00:28N 44°06' E 039°04'0 0.0
2017-Sep-19 23:58N 44°06' E 039°04'0 0.0
2017-Sep-19 23:28N 44°06' E 039°04'0 0.0
2017-Sep-19 22:58N 44°06' E 039°04'0 0.0
2017-Sep-19 22:28N 44°06' E 039°04'0 0.0
2017-Sep-19 21:58N 44°06' E 039°04'0 0.0
2017-Sep-19 21:28N 44°06' E 039°04'0 0.0
2017-Sep-19 20:58N 44°06' E 039°04'0 0.0
2017-Sep-19 20:28N 44°06' E 039°04'0 0.0
2017-Sep-19 19:58N 44°06' E 039°04'0 0.0
2017-Sep-19 19:28N 44°06' E 039°04'0 0.0
2017-Sep-19 18:58N 44°06' E 039°04'0 0.0
2017-Sep-19 18:28N 44°06' E 039°04'0 0.0
2017-Sep-19 17:58N 44°06' E 039°04'0 0.0
2017-Sep-19 17:28N 44°06' E 039°04'0 0.0
2017-Sep-19 16:58N 44°06' E 039°04'0 0.0
2017-Sep-19 16:28N 44°06' E 039°04'0 0.0
2017-Sep-19 15:58N 44°06' E 039°04'0 0.0
2017-Sep-19 15:28N 44°06' E 039°04'0 0.0
2017-Sep-19 14:58N 44°06' E 039°04'0 0.0
2017-Sep-19 14:28N 44°06' E 039°04'0 0.0
2017-Sep-19 13:58N 44°06' E 039°04'0 0.0
2017-Sep-19 13:28N 44°06' E 039°04'0 0.0
2017-Sep-19 12:58N 44°06' E 039°04'0 0.0
2017-Sep-19 12:28N 44°06' E 039°04'0 0.0
2017-Sep-19 11:58N 44°06' E 039°04'0 0.0
2017-Sep-19 11:28N 44°06' E 039°04'0 0.0
2017-Sep-19 10:58N 44°06' E 039°04'0 0.0
2017-Sep-19 10:28N 44°06' E 039°04'0 0.0
2017-Sep-19 09:58N 44°06' E 039°04'0 0.0
2017-Sep-19 09:28N 44°06' E 039°04'0 0.0
2017-Sep-19 08:58N 44°06' E 039°04'0 0.0
2017-Sep-19 08:28N 44°06' E 039°04'0 0.0
2017-Sep-19 07:58N 44°06' E 039°04'0 0.0
2017-Sep-19 07:28N 44°06' E 039°04'0 0.0
2017-Sep-19 06:58N 44°06' E 039°04'0 0.0
2017-Sep-19 06:28N 44°06' E 039°04'0 0.0
2017-Sep-19 05:58N 44°06' E 039°04'0 0.0
2017-Sep-19 05:28N 44°06' E 039°04'0 0.0
2017-Sep-19 04:58N 44°06' E 039°04'0 0.0
2017-Sep-19 04:29N 44°06' E 039°04'0 0.0
2017-Sep-19 03:58N 44°06' E 039°04'0 0.0
2017-Sep-19 03:28N 44°06' E 039°04'0 0.0
2017-Sep-19 02:58N 44°06' E 039°04'0 0.0
2017-Sep-19 02:28N 44°06' E 039°04'0 0.0
2017-Sep-19 01:58N 44°06' E 039°04'0 0.0
2017-Sep-19 01:28N 44°06' E 039°04'0 0.0
2017-Sep-19 00:58N 44°06' E 039°04'0 0.0
2017-Sep-19 00:28N 44°06' E 039°04'0 0.0
2017-Sep-18 23:58N 44°06' E 039°04'0 0.0
2017-Sep-18 23:28N 44°06' E 039°04'0 0.0
2017-Sep-18 22:55N 44°06' E 039°04'0 0.0
2017-Sep-18 22:28N 44°06' E 039°04'0 0.0
2017-Sep-18 21:58N 44°06' E 039°04'0 0.0
2017-Sep-18 21:28N 44°06' E 039°04'0 0.0
2017-Sep-18 20:58N 44°06' E 039°04'0 0.0
2017-Sep-18 20:28N 44°06' E 039°04'0 0.0
2017-Sep-18 19:58N 44°06' E 039°04'0 0.0
2017-Sep-18 19:28N 44°06' E 039°04'0 0.0
2017-Sep-18 18:58N 44°06' E 039°04'0 0.0
2017-Sep-18 18:28N 44°06' E 039°04'0 0.0
2017-Sep-18 17:58N 44°06' E 039°04'0 0.0
2017-Sep-18 17:28N 44°06' E 039°04'0 0.0
2017-Sep-18 16:58N 44°06' E 039°04'0 0.0
2017-Sep-18 16:28N 44°06' E 039°04'0 0.0
2017-Sep-18 15:58N 44°06' E 039°04'0 0.0
2017-Sep-18 15:28N 44°06' E 039°04'0 0.0
2017-Sep-18 14:58N 44°06' E 039°04'0 0.0
2017-Sep-18 14:28N 44°06' E 039°04'0 0.0
2017-Sep-18 13:58N 44°06' E 039°04'0 0.0
2017-Sep-18 13:28N 44°06' E 039°04'0 0.0
2017-Sep-18 12:55N 44°06' E 039°04'0 0.0
2017-Sep-18 12:28N 44°06' E 039°04'0 0.0
2017-Sep-18 11:58N 44°06' E 039°04'0 0.0
2017-Sep-18 11:28N 44°06' E 039°04'0 0.0
2017-Sep-18 10:58N 44°06' E 039°04'0 0.0
2017-Sep-18 10:28N 44°06' E 039°04'0 0.0
2017-Sep-18 09:58N 44°06' E 039°04'0 0.0
2017-Sep-18 09:28N 44°06' E 039°04'0 0.0
2017-Sep-18 08:58N 44°06' E 039°04'0 0.0
2017-Sep-18 08:28N 44°06' E 039°04'0 0.0
2017-Sep-18 07:58N 44°06' E 039°04'0 0.0
2017-Sep-18 07:28N 44°06' E 039°04'0 0.0
2017-Sep-18 06:58N 44°06' E 039°04'0 0.0
2017-Sep-18 06:28N 44°06' E 039°04'0 0.0
2017-Sep-18 05:58N 44°06' E 039°04'0 0.0
2017-Sep-18 05:28N 44°06' E 039°04'0 0.0
2017-Sep-18 04:58N 44°06' E 039°04'0 0.0
2017-Sep-18 04:28N 44°06' E 039°04'0 0.0
2017-Sep-18 03:58N 44°06' E 039°04'0 0.0
2017-Sep-18 03:28N 44°06' E 039°04'0 0.0
2017-Sep-18 02:58N 44°06' E 039°04'0 0.0
2017-Sep-18 02:28N 44°06' E 039°04'0 0.0
2017-Sep-18 01:58N 44°06' E 039°04'0 0.0
2017-Sep-18 01:28N 44°06' E 039°04'0 0.0
2017-Sep-18 00:58N 44°06' E 039°04'0 0.0
2017-Sep-18 00:28N 44°06' E 039°04'0 0.0
2017-Sep-17 23:58N 44°06' E 039°04'0 0.0
2017-Sep-17 23:28N 44°06' E 039°04'0 0.0
2017-Sep-17 22:58N 44°06' E 039°04'0 0.0
2017-Sep-17 22:28N 44°06' E 039°04'0 0.0
2017-Sep-17 21:58N 44°06' E 039°04'0 0.0
2017-Sep-17 21:28N 44°06' E 039°04'0 0.0
2017-Sep-17 20:58N 44°06' E 039°04'0 0.0
2017-Sep-17 20:28N 44°06' E 039°04'0 0.0
2017-Sep-17 19:58N 44°06' E 039°04'0 0.0
2017-Sep-17 19:28N 44°06' E 039°04'0 0.0
2017-Sep-17 18:58N 44°06' E 039°04'0 0.0
2017-Sep-17 18:28N 44°06' E 039°04'0 0.0
2017-Sep-17 17:58N 44°06' E 039°04'0 0.0
2017-Sep-17 17:28N 44°06' E 039°04'0 0.0
2017-Sep-17 16:58N 44°06' E 039°04'0 0.0
2017-Sep-17 16:28N 44°06' E 039°04'0 0.0
2017-Sep-17 15:58N 44°06' E 039°04'0 0.0
2017-Sep-17 15:28N 44°06' E 039°04'0 0.0
2017-Sep-17 14:58N 44°06' E 039°04'0 0.0
2017-Sep-17 14:28N 44°06' E 039°04'0 0.0
2017-Sep-17 13:58N 44°06' E 039°04'0 0.0
2017-Sep-17 13:28N 44°06' E 039°04'0 0.0
2017-Sep-17 12:58N 44°06' E 039°04'0 0.0
2017-Sep-17 12:28N 44°06' E 039°04'0 0.0
2017-Sep-17 11:58N 44°06' E 039°04'0 0.0
2017-Sep-17 11:28N 44°06' E 039°04'0 0.0
2017-Sep-17 10:58N 44°06' E 039°04'0 0.0
2017-Sep-17 10:28N 44°06' E 039°04'0 0.0
2017-Sep-17 09:58N 44°06' E 039°04'0 0.0
2017-Sep-17 09:28N 44°06' E 039°04'0 0.0
2017-Sep-17 08:58N 44°06' E 039°04'0 0.0
2017-Sep-17 08:28N 44°06' E 039°04'0 0.0
2017-Sep-17 07:58N 44°06' E 039°04'0 0.0
2017-Sep-17 07:28N 44°06' E 039°04'0 0.0
2017-Sep-17 06:58N 44°06' E 039°04'0 0.0
2017-Sep-17 06:28N 44°06' E 039°04'0 0.0
2017-Sep-17 05:58N 44°06' E 039°04'0 0.0
2017-Sep-17 05:28N 44°06' E 039°04'0 0.0
2017-Sep-17 04:58N 44°06' E 039°04'0 0.0
2017-Sep-17 04:28N 44°06' E 039°04'0 0.0
2017-Sep-17 03:58N 44°06' E 039°04'0 0.0
2017-Sep-17 03:28N 44°06' E 039°04'0 0.0
2017-Sep-17 02:58N 44°06' E 039°04'0 0.0
2017-Sep-17 02:28N 44°06' E 039°04'0 0.0
2017-Sep-17 01:58N 44°06' E 039°04'0 0.0
2017-Sep-17 01:28N 44°06' E 039°04'0 0.0
2017-Sep-17 00:58N 44°06' E 039°04'0 0.0
2017-Sep-17 00:28N 44°06' E 039°04'0 0.0
2017-Sep-16 23:58N 44°06' E 039°04'0 0.0
2017-Sep-16 23:28N 44°06' E 039°04'0 0.0
2017-Sep-16 22:58N 44°06' E 039°04'0 0.0
2017-Sep-16 22:28N 44°06' E 039°04'0 0.0
2017-Sep-16 21:58N 44°06' E 039°04'0 0.0
2017-Sep-16 21:28N 44°06' E 039°04'0 0.0
2017-Sep-16 20:58N 44°06' E 039°04'0 0.0
2017-Sep-16 20:28N 44°06' E 039°04'0 0.0
2017-Sep-16 19:58N 44°06' E 039°04'0 0.0
2017-Sep-16 19:28N 44°06' E 039°04'0 0.0
2017-Sep-16 18:58N 44°06' E 039°04'0 0.0
2017-Sep-16 18:28N 44°06' E 039°04'0 0.0
2017-Sep-16 17:58N 44°06' E 039°04'0 0.0
2017-Sep-16 17:28N 44°06' E 039°04'0 0.0
2017-Sep-16 16:58N 44°06' E 039°04'0 0.0
2017-Sep-16 16:28N 44°06' E 039°04'0 0.0
2017-Sep-16 15:58N 44°06' E 039°04'0 0.0
2017-Sep-16 15:28N 44°06' E 039°04'0 0.0
2017-Sep-16 14:58N 44°06' E 039°04'0 0.0
2017-Sep-16 14:28N 44°06' E 039°04'0 0.0
2017-Sep-16 13:58N 44°06' E 039°04'0 0.0
2017-Sep-16 13:28N 44°06' E 039°04'0 0.0
2017-Sep-16 12:58N 44°06' E 039°04'0 0.0
2017-Sep-16 12:28N 44°06' E 039°04'0 0.0
2017-Sep-16 11:58N 44°06' E 039°04'0 0.0
2017-Sep-16 11:25N 44°06' E 039°04'0 0.0
2017-Sep-16 10:58N 44°06' E 039°04'0 0.0
2017-Sep-16 10:28N 44°06' E 039°04'0 0.0
2017-Sep-16 09:58N 44°06' E 039°04'0 0.0
2017-Sep-16 09:28N 44°06' E 039°04'0 0.0
2017-Sep-16 08:58N 44°06' E 039°04'  

Dump ship's entire track history